Latest Coastal Weather Observations for Browse Island

IDW60701

Issued at 1:33 pm WST Tuesday 28 February 2017 (issued every 10 minutes, with the page automatically refreshed every 10 minutes)

About coastal observations | Map of coastal stations | Coastal observations for WA | Marine services | Other Formats
Station Details ID: 200784 Name: BROWSE ISLAND Lat: -14.11 Lon: 123.55 Height: 3.7 m
Data from the previous 72 hours. | See also: Recent months at Browse Island
Date/Time
WST
Temp
°C
Wind Pressure Rain since
9am
mm
Weather Cloud Vis
km
Sea
Height
m
Swell
Dir  Spd
kts
Gust
kts
hPa Trend Height
m
Period
s
Dir
28/01:30pm 30.0 S 9 9 1007.0 - - - - - - - - -
28/01:00pm 29.8 S 9 - 1007.4 - - - - - - - - -
28/12:30pm 29.6 S 9 11 1007.8 - - - - - - - - -
28/12:00pm 29.3 S 10 11 1008.0 - - - - - - - - -
28/11:30am 29.0 S 12 - 1008.0 - - - - - - - - -
28/11:00am 29.0 S 12 - 1008.8 - - - - - - - - -
28/10:30am 29.0 S 13 - 1009.0 - - - - - - - - -
28/10:00am 29.0 SSW 11 13 1009.0 - - - - - - - - -
28/09:30am 29.0 SW 11 13 1009.1 - - - - - - - - -
28/09:00am 28.8 SW 10 12 1009.2 - - - - - - - - -
28/08:30am 29.0 SSW 11 - 1009.0 - - - - - - - - -
28/08:00am 28.8 SSW 11 - 1009.3 - - - - - - - - -
28/07:30am 29.0 SSW 12 - 1009.0 - - - - - - - - -
28/07:00am 28.6 SSW 10 - 1008.9 - - - - - - - - -
28/06:30am 29.0 SSW 11 - 1008.0 - - - - - - - - -
28/06:00am 28.6 SW 9 - 1008.7 - - - - - - - - -
28/05:30am 29.0 SSW 9 - 1008.0 - - - - - - - - -
28/05:00am 28.7 S 11 - 1008.4 - - - - - - - - -
28/04:30am 29.0 S 12 - 1008.0 - - - - - - - - -
28/04:00am 28.8 SSW 12 - 1008.2 - - - - - - - - -
28/03:30am 29.0 SSW 11 - 1008.0 - - - - - - - - -
28/03:00am 28.6 SSW 10 12 1008.2 - - - - - - - - -
28/02:30am 29.0 SSW 10 - 1008.0 - - - - - - - - -
28/02:00am 28.8 SW 11 12 1008.3 - - - - - - - - -
28/01:30am 29.0 SW 11 - 1008.0 - - - - - - - - -
28/01:00am 28.8 SW 10 11 1008.8 - - - - - - - - -
28/12:30am 29.0 SSW 10 - 1009.0 - - - - - - - - -
28/12:00am 28.9 SSW 9 - 1009.4 - - - - - - - - -
 
Date/Time
WST
Temp
°C
Wind Pressure Rain since
9am
mm
Weather Cloud Vis
km
Sea
Height
m
Swell
Dir  Spd
kts
Gust
kts
hPa Trend Height
m
Period
s
Dir
27/11:30pm 29.0 S 9 - 1010.0 - - - - - - - - -
27/11:00pm 29.0 SSW 9 - 1010.4 - - - - - - - - -
27/10:30pm 29.0 SSW 11 - 1010.0 - - - - - - - - -
27/10:00pm 29.1 SSW 10 11 1010.8 - - - - - - - - -
27/09:30pm 29.0 SSW 8 - 1010.0 - - - - - - - - -
27/09:00pm 29.1 SW 8 9 1010.1 - - - - - - - - -
27/08:30pm 29.0 SSW 8 - 1009.0 - - - - - - - - -
27/08:00pm 29.1 SSW 8 - 1009.7 - - - - - - - - -
27/07:30pm 29.0 SSW 9 - 1009.0 - - - - - - - - -
27/07:00pm 29.0 SSW 8 - 1008.8 - - - - - - - - -
27/06:30pm 29.0 SSW 8 - 1008.0 - - - - - - - - -
27/06:00pm 29.1 SSW 9 10 1007.7 - - - - - - - - -
27/05:30pm 29.0 SSW 9 - 1007.0 - - - - - - - - -
27/05:00pm 29.4 SSW 10 - 1007.3 - - - - - - - - -
27/04:30pm 29.0 SSW 10 - 1007.0 - - - - - - - - -
27/04:00pm 29.3 SW 9 11 1007.1 - - - - - - - - -
27/03:30pm 29.0 SW 7 - 1007.0 - - - - - - - - -
27/03:00pm 29.5 SSW 7 9 1007.7 - - - - - - - - -
27/02:30pm 30.0 SSW 7 - 1008.0 - - - - - - - - -
27/02:00pm 29.3 SSW 6 - 1008.2 - - - - - - - - -
27/01:30pm 30.0 SSW 6 - 1008.0 - - - - - - - - -
27/01:00pm 29.3 SSW 6 - 1008.8 - - - - - - - - -
27/12:30pm 30.0 SSW 5 - 1009.0 - - - - - - - - -
27/12:00pm 30.1 SW 5 7 1009.5 - - - - - - - - -
27/11:30am 30.0 SSW 5 - 1009.0 - - - - - - - - -
27/11:00am 29.4 SSW 5 - 1010.1 - - - - - - - - -
27/10:30am 29.0 SSW 6 - 1010.0 - - - - - - - - -
27/10:00am 29.0 S 6 7 1010.5 - - - - - - - - -
27/09:30am 29.0 S 7 - 1010.0 - - - - - - - - -
27/09:00am 29.3 S 6 - 1011.0 - - - - - - - - -
27/08:30am 29.0 S 6 - 1011.0 - - - - - - - - -
27/08:00am 29.1 S 5 - 1010.7 - - - - - - - - -
27/07:30am 29.0 S 6 - 1010.0 - - - - - - - - -
27/07:00am 28.5 S 5 - 1009.9 - - - - - - - - -
27/06:30am 28.0 SSW 5 - 1009.0 - - - - - - - - -
27/06:00am 28.3 SW 5 - 1009.2 - - - - - - - - -
27/05:30am 28.0 SSW 6 - 1009.0 - - - - - - - - -
27/05:00am 28.5 SSW 8 - 1008.9 - - - - - - - - -
27/04:30am 28.5 SW 8 9 1008.9 - - - - - - - - -
27/04:00am 28.5 SW 9 10 1008.7 - - - - - - - - -
27/03:30am 29.0 SW 9 - 1008.0 - - - - - - - - -
27/03:00am 28.6 WSW 9 11 1008.7 - - - - - - - - -
27/02:30am 29.0 SW 8 - 1008.0 - - - - - - - - -
27/02:00am 28.7 WSW 6 - 1008.7 - - - - - - - - -
27/01:30am 29.0 SSW 5 - 1009.0 - - - - - - - - -
27/01:00am 28.7 SSW 4 5 1009.3 - - - - - - - - -
27/12:30am 29.0 SSW 4 - 1009.0 - - - - - - - - -
27/12:00am 28.9 WSW 4 - 1009.7 - - - - - - - - -
 
Date/Time
WST
Temp
°C
Wind Pressure Rain since
9am
mm
Weather Cloud Vis
km
Sea
Height
m
Swell
Dir  Spd
kts
Gust
kts
hPa Trend Height
m
Period
s
Dir
26/11:30pm 29.0 CALM 0 - 1010.0 - - - - - - - - -
26/11:00pm 29.0 WSW 4 - 1010.0 - - - - - - - - -
26/10:30pm 29.0 W 4 - 1010.0 - - - - - - - - -
26/10:00pm 29.0 W 4 - 1010.2 - - - - - - - - -
26/09:30pm 29.0 WNW 5 - 1010.0 - - - - - - - - -
26/09:00pm 29.1 NW 7 9 1009.9 - - - - - - - - -
26/08:30pm 29.0 WNW 6 - 1009.0 - - - - - - - - -
26/08:00pm 29.1 WNW 8 - 1009.2 - - - - - - - - -
26/07:30pm 29.2 NW 9 10 1008.8 - - - - - - - - -
26/07:00pm 29.2 NW 8 9 1008.4 - - - - - - - - -
26/06:30pm 29.0 NW 7 - 1008.0 - - - - - - - - -
26/06:00pm 29.1 NNW 6 8 1007.6 - - - - - - - - -
26/05:30pm 29.0 NNW 6 - 1007.0 - - - - - - - - -
26/05:00pm 29.3 NNW 8 - 1006.9 - - - - - - - - -
26/04:30pm 30.0 NNW 8 - 1007.0 - - - - - - - - -
26/04:00pm 30.0 NNW 8 10 1006.7 - - - - - - - - -
26/03:30pm 30.0 NNW 10 - 1006.0 - - - - - - - - -
26/03:00pm 29.3 NNW 10 11 1007.0 - - - - - - - - -
26/02:30pm 30.0 NNW 7 - 1007.0 - - - - - - - - -
26/02:00pm 30.5 NNW 7 9 1007.7 - - - - - - - - -
26/01:30pm 30.0 NNW 6 - 1008.0 - - - - - - - - -
26/01:00pm 30.3 NNW 7 9 1008.1 - - - - - - - - -
26/12:30pm 31.0 NNW 7 - 1008.0 - - - - - - - - -
26/12:00pm 29.8 NNW 6 7 1008.6 - - - - - - - - -
26/11:30am 30.0 NW 6 - 1009.0 - - - - - - - - -
26/11:00am 29.7 NW 6 - 1009.2 - - - - - - - - -
26/10:30am 30.0 NW 6 - 1009.0 - - - - - - - - -
26/10:00am 30.0 NW 7 8 1009.6 - - - - - - - - -
26/09:30am 29.0 NNW 7 - 1009.0 - - - - - - - - -
26/09:00am 29.4 N 7 9 1009.5 - - - - - - - - -
26/08:30am 29.0 N 8 - 1009.0 - - - - - - - - -
26/08:00am 28.7 N 8 - 1009.1 - - - - - - - - -
26/07:30am 28.8 N 6 7 1008.7 - - - - - - - - -
26/07:00am 28.5 N 7 - 1008.5 - - - - - - - - -
26/06:30am 28.0 N 6 - 1008.0 - - - - - - - - -
26/06:00am 28.0 N 6 7 1007.8 - - - - - - - - -
26/05:30am 28.0 N 6 - 1007.0 - - - - - - - - -
26/05:00am 28.3 N 6 - 1007.5 - - - - - - - - -
26/04:30am 28.0 NNE 6 - 1007.0 - - - - - - - - -
26/04:00am 28.2 NNE 6 - 1007.5 - - - - - - - - -
26/03:30am 28.0 N 5 - 1007.0 - - - - - - - - -
26/03:00am 28.3 NNE 5 7 1007.4 - - - - - - - - -
26/02:30am 28.0 N 6 - 1007.0 - - - - - - - - -
26/02:00am 28.3 NNE 3 - 1007.6 - - - - - - - - -
26/01:30am 28.0 CALM 0 - 1008.0 - - - - - - - - -
26/01:00am 28.4 CALM 0 - 1008.2 - - - - - - - - -
26/12:30am 29.0 CALM 0 - 1008.0 - - - - - - - - -
26/12:00am 28.5 CALM 0 - 1009.0 - - - - - - - - -
 
Date/Time
WST
Temp
°C
Wind Pressure Rain since
9am
mm
Weather Cloud Vis
km
Sea
Height
m
Swell
Dir  Spd
kts
Gust
kts
hPa Trend Height
m
Period
s
Dir
25/11:30pm 29.0 CALM 0 - 1009.0 - - - - - - - - -
25/11:00pm 28.5 CALM 0 0 1009.7 - - - - - - - - -
25/10:30pm 29.0 CALM 0 - 1010.0 - - - - - - - - -
25/10:00pm 28.7 CALM 0 0 1010.1 - - - - - - - - -
25/09:30pm 28.9 CALM 0 0 1010.0 - - - - - - - - -
25/09:00pm 29.0 CALM 0 0 1009.9 - - - - - - - - -
25/08:30pm 29.0 SSW 3 - 1009.0 - - - - - - - - -
25/08:00pm 29.2 W 4 4 1009.2 - - - - - - - - -
25/07:30pm 29.0 WNW 6 - 1009.0 - - - - - - - - -
25/07:00pm 29.2 WNW 8 - 1008.7 - - - - - - - - -
25/06:30pm 29.0 WNW 8 - 1008.0 - - - - - - - - -
25/06:00pm 29.3 WNW 8 10 1007.6 - - - - - - - - -
25/05:30pm 29.0 W 8 - 1007.0 - - - - - - - - -
25/05:00pm 29.6 WNW 9 - 1007.1 - - - - - - - - -
25/04:30pm 30.0 W 6 - 1007.0 - - - - - - - - -
25/04:00pm 29.5 NW 7 - 1006.9 - - - - - - - - -
25/03:30pm 30.0 N 7 - 1006.0 - - - - - - - - -
25/03:00pm 29.6 N 6 8 1007.1 - - - - - - - - -
25/02:30pm 29.0 N 6 - 1007.0 - - - - - - - - -
25/02:00pm 29.4 N 4 5 1007.8 - - - - - - - - -

Other Formats:

Comma delimited format used in spreadsheet applications
http://www.bom.gov.au/fwo/IDW60701/IDW60701.94103.axf

JavaScript Object Notation format (JSON) in row-major order
http://www.bom.gov.au/fwo/IDW60701/IDW60701.94103.json